AZU4056 SBKP-SBEG

Flight info

Callsign AZU4056
Flight time 3h 28m
Altitude 38000
Route VUPOG UM417 UMGUP DCT IRUMO
Aircraft A20N/M-SDE2E3FGHIRWXY/LB1

Departure

Time 2026-04-26 19:28
Airport Viracopos International Airport (SBKP)

Arrival

Time 2026-04-26 22:56
Airport Eduardo Gomes International Airport (SBEG)
Time Latitude Longitude Altitude Speed Heading
2026-04-26 18:54 -23.00356 -47.14928 2149 ft 0 kts 219°
2026-04-26 19:14 -23.00341 -47.14917 2146 ft 3 kts 188°
2026-04-26 19:14 -23.00323 -47.14915 2146 ft 3 kts 194°
2026-04-26 19:14 -23.00311 -47.14913 2145 ft 3 kts 150°
2026-04-26 19:15 -23.00304 -47.14919 2145 ft 0 kts 128°
2026-04-26 19:19 -23.00337 -47.14867 2149 ft 15 kts 126°
2026-04-26 19:19 -23.00401 -47.14770 2149 ft 10 kts 102°
2026-04-26 19:19 -23.00384 -47.14734 2149 ft 4 kts 47°
2026-04-26 19:19 -23.00328 -47.14682 2150 ft 16 kts 38°
2026-04-26 19:20 -23.00241 -47.14611 2148 ft 15 kts 37°
2026-04-26 19:20 -23.00199 -47.14555 2150 ft 15 kts 80°
2026-04-26 19:20 -23.00297 -47.14387 2152 ft 20 kts 128°
2026-04-26 19:20 -23.00378 -47.14273 2153 ft 20 kts 128°
2026-04-26 19:21 -23.00465 -47.14151 2151 ft 23 kts 128°
2026-04-26 19:21 -23.00558 -47.14021 2154 ft 21 kts 128°
2026-04-26 19:21 -23.00643 -47.13904 2158 ft 19 kts 127°
2026-04-26 19:21 -23.00717 -47.13799 2158 ft 17 kts 127°
2026-04-26 19:22 -23.00790 -47.13696 2154 ft 20 kts 128°
2026-04-26 19:22 -23.00870 -47.13584 2161 ft 18 kts 128°
2026-04-26 19:22 -23.00941 -47.13484 2163 ft 15 kts 128°
2026-04-26 19:22 -23.01016 -47.13380 2161 ft 17 kts 129°
2026-04-26 19:23 -23.01095 -47.13270 2160 ft 20 kts 128°
2026-04-26 19:23 -23.01179 -47.13151 2165 ft 19 kts 128°
2026-04-26 19:23 -23.01256 -47.13047 2166 ft 17 kts 127°
2026-04-26 19:23 -23.01326 -47.12947 2166 ft 18 kts 128°
2026-04-26 19:24 -23.01408 -47.12832 2164 ft 20 kts 128°
2026-04-26 19:24 -23.01492 -47.12715 2165 ft 19 kts 129°
2026-04-26 19:24 -23.01632 -47.12523 2174 ft 14 kts 128°
2026-04-26 19:25 -23.01690 -47.12441 2168 ft 15 kts 127°
2026-04-26 19:25 -23.01712 -47.12410 2166 ft 15 kts 127°
2026-04-26 19:25 -23.01712 -47.12276 2173 ft 4 kts 37°
2026-04-26 19:26 -23.01711 -47.12275 2173 ft 2 kts 37°
2026-04-26 19:26 -23.01668 -47.12247 2174 ft 13 kts 24°
2026-04-26 19:26 -23.01592 -47.12264 2169 ft 4 kts 310°
2026-04-26 19:27 -23.01582 -47.12277 2175 ft 11 kts 309°
2026-04-26 19:27 -23.01415 -47.12508 2168 ft 68 kts 308°
2026-04-26 19:27 -23.01012 -47.13073 2160 ft 120 kts 308°
2026-04-26 19:27 -23.00419 -47.13902 2256 ft 148 kts 308°
2026-04-26 19:28 -22.99772 -47.14808 2574 ft 160 kts 308°
2026-04-26 19:28 -22.99075 -47.15787 2933 ft 167 kts 308°
2026-04-26 19:28 -22.98333 -47.16721 3421 ft 165 kts 320°
2026-04-26 19:28 -22.97309 -47.17426 3656 ft 185 kts 327°
2026-04-26 19:29 -22.96122 -47.18162 3898 ft 207 kts 327°
2026-04-26 19:29 -22.94802 -47.18990 4084 ft 234 kts 327°
2026-04-26 19:29 -22.93337 -47.19938 4430 ft 253 kts 327°
2026-04-26 19:29 -22.91807 -47.20942 5030 ft 260 kts 327°
2026-04-26 19:30 -22.90128 -47.21707 5670 ft 268 kts 347°
2026-04-26 19:30 -22.88279 -47.21983 6449 ft 268 kts 351°
2026-04-26 19:30 -22.86413 -47.22177 7151 ft 271 kts 352°
2026-04-26 19:30 -22.85165 -47.22299 7612 ft 273 kts 352°
2026-04-26 19:31 -22.82625 -47.22555 8604 ft 276 kts 352°
2026-04-26 19:31 -22.80696 -47.22758 9280 ft 282 kts 352°
2026-04-26 19:31 -22.78725 -47.22968 9962 ft 286 kts 352°
2026-04-26 19:31 -22.76701 -47.23188 10396 ft 301 kts 352°
2026-04-26 19:32 -22.74545 -47.23424 10639 ft 320 kts 352°
2026-04-26 19:32 -22.72309 -47.23669 10988 ft 333 kts 352°
2026-04-26 19:32 -22.69979 -47.23922 11504 ft 339 kts 352°
2026-04-26 19:32 -22.67618 -47.24179 12113 ft 343 kts 352°
2026-04-26 19:33 -22.65232 -47.24438 12722 ft 347 kts 352°
2026-04-26 19:33 -22.62816 -47.24701 13303 ft 351 kts 352°
2026-04-26 19:33 -22.60373 -47.24967 13880 ft 355 kts 352°
2026-04-26 19:33 -22.57904 -47.25236 14421 ft 358 kts 352°
2026-04-26 19:34 -22.55409 -47.25507 14948 ft 363 kts 351°
2026-04-26 19:34 -22.52882 -47.25783 15493 ft 366 kts 351°
2026-04-26 19:34 -22.50339 -47.26060 16043 ft 369 kts 351°
2026-04-26 19:34 -22.47774 -47.26339 16599 ft 372 kts 351°
2026-04-26 19:35 -22.45186 -47.26621 17133 ft 375 kts 351°
2026-04-26 19:35 -22.42574 -47.26905 17645 ft 378 kts 351°
2026-04-26 19:35 -22.39945 -47.27191 18141 ft 382 kts 351°
2026-04-26 19:35 -22.37292 -47.27479 18561 ft 385 kts 351°
2026-04-26 19:36 -22.34623 -47.27770 18977 ft 387 kts 351°
2026-04-26 19:36 -22.33719 -47.27881 19119 ft 387 kts 349°
2026-04-26 19:36 -22.29402 -47.29034 19826 ft 384 kts 334°
2026-04-26 19:36 -22.27803 -47.29849 20106 ft 383 kts 328°
2026-04-26 19:37 -22.24917 -47.32064 20677 ft 381 kts 316°
2026-04-26 19:37 -22.22960 -47.34003 21114 ft 382 kts 314°
2026-04-26 19:37 -22.21031 -47.35984 21545 ft 384 kts 314°
2026-04-26 19:37 -22.19092 -47.37978 21967 ft 386 kts 314°
2026-04-26 19:38 -22.17800 -47.39302 22277 ft 387 kts 314°
2026-04-26 19:38 -22.15846 -47.41298 22726 ft 388 kts 314°
2026-04-26 19:38 -22.13873 -47.43309 23108 ft 391 kts 314°
2026-04-26 19:38 -22.11888 -47.45330 23512 ft 394 kts 314°
2026-04-26 19:39 -22.09891 -47.47361 23868 ft 396 kts 314°
2026-04-26 19:39 -22.07885 -47.49399 24220 ft 397 kts 314°
2026-04-26 19:39 -22.05869 -47.51445 24573 ft 399 kts 314°
2026-04-26 19:39 -22.03843 -47.53501 24951 ft 401 kts 314°
2026-04-26 19:40 -22.01809 -47.55564 25326 ft 402 kts 314°
2026-04-26 19:40 -21.99765 -47.57635 25680 ft 404 kts 314°
2026-04-26 19:40 -21.97710 -47.59718 26032 ft 406 kts 314°
2026-04-26 19:40 -21.95644 -47.61812 26327 ft 409 kts 315°
2026-04-26 19:41 -21.93567 -47.63915 26666 ft 411 kts 315°
2026-04-26 19:41 -21.91476 -47.66031 27016 ft 413 kts 315°
2026-04-26 19:41 -21.89381 -47.68150 27341 ft 415 kts 315°
2026-04-26 19:41 -21.87986 -47.69560 27568 ft 416 kts 315°
2026-04-26 19:42 -21.85158 -47.72419 27997 ft 418 kts 315°
2026-04-26 19:42 -21.83033 -47.74565 28331 ft 420 kts 315°
2026-04-26 19:42 -21.80898 -47.76721 28655 ft 421 kts 315°
2026-04-26 19:42 -21.78759 -47.78880 28966 ft 423 kts 315°
2026-04-26 19:43 -21.76604 -47.81055 29281 ft 425 kts 315°
2026-04-26 19:43 -21.74448 -47.83230 29612 ft 426 kts 315°
2026-04-26 19:43 -21.72284 -47.85411 29911 ft 427 kts 315°
2026-04-26 19:43 -21.70109 -47.87604 30184 ft 429 kts 315°
2026-04-26 19:44 -21.67936 -47.89791 30538 ft 427 kts 315°
2026-04-26 19:44 -21.65770 -47.91972 30892 ft 426 kts 315°
2026-04-26 19:44 -21.63615 -47.94140 31253 ft 424 kts 315°
2026-04-26 19:44 -21.61460 -47.96308 31601 ft 423 kts 315°
2026-04-26 19:45 -21.59312 -47.98468 31892 ft 423 kts 315°
2026-04-26 19:45 -21.57164 -48.00628 32211 ft 422 kts 315°
2026-04-26 19:45 -21.55022 -48.02779 32582 ft 421 kts 315°
2026-04-26 19:45 -21.52889 -48.04921 32944 ft 419 kts 315°
2026-04-26 19:46 -21.50766 -48.07052 33270 ft 418 kts 315°
2026-04-26 19:46 -21.48647 -48.09179 33591 ft 417 kts 315°
2026-04-26 19:46 -21.46559 -48.11273 33886 ft 416 kts 315°
2026-04-26 19:46 -21.44447 -48.13391 34154 ft 415 kts 315°
2026-04-26 19:47 -21.42341 -48.15501 34390 ft 414 kts 315°
2026-04-26 19:47 -21.40915 -48.16931 34514 ft 415 kts 315°
2026-04-26 19:47 -21.38118 -48.19731 34775 ft 415 kts 315°
2026-04-26 19:47 -21.36009 -48.21843 35012 ft 415 kts 315°
2026-04-26 19:48 -21.33902 -48.23950 35258 ft 414 kts 315°
2026-04-26 19:48 -21.31799 -48.26053 35499 ft 413 kts 315°
2026-04-26 19:48 -21.29704 -48.28148 35720 ft 412 kts 315°
2026-04-26 19:48 -21.27608 -48.30243 35928 ft 412 kts 316°
2026-04-26 19:49 -21.25517 -48.32331 36127 ft 411 kts 316°
2026-04-26 19:49 -21.23424 -48.34421 36328 ft 411 kts 316°
2026-04-26 19:49 -21.21332 -48.36509 36467 ft 411 kts 316°
2026-04-26 19:49 -21.19236 -48.38601 36621 ft 412 kts 316°
2026-04-26 19:50 -21.17142 -48.40689 36812 ft 411 kts 316°
2026-04-26 19:50 -21.15050 -48.42774 37010 ft 411 kts 316°
2026-04-26 19:50 -21.12960 -48.44857 37198 ft 410 kts 316°
2026-04-26 19:50 -21.10873 -48.46936 37384 ft 409 kts 316°
2026-04-26 19:51 -21.08791 -48.49009 37542 ft 409 kts 316°
2026-04-26 19:51 -21.06706 -48.51083 37697 ft 409 kts 316°
2026-04-26 19:51 -21.04627 -48.53152 37842 ft 408 kts 316°
2026-04-26 19:51 -21.02543 -48.55225 37914 ft 410 kts 316°
2026-04-26 19:52 -20.98359 -48.59383 37920 ft 411 kts 316°
2026-04-26 19:52 -20.94173 -48.63540 37924 ft 410 kts 316°
2026-04-26 19:53 -20.89989 -48.67691 37920 ft 410 kts 316°
2026-04-26 19:53 -20.85807 -48.71838 37921 ft 410 kts 316°
2026-04-26 19:54 -20.81624 -48.75982 37920 ft 411 kts 316°
2026-04-26 19:54 -20.77428 -48.80136 37920 ft 411 kts 316°
2026-04-26 19:55 -20.73105 -48.84138 37921 ft 412 kts 321°
2026-04-26 19:55 -20.68453 -48.87731 37920 ft 413 kts 323°
2026-04-26 19:56 -20.63732 -48.91224 37909 ft 413 kts 324°
2026-04-26 19:56 -20.59005 -48.94724 37919 ft 414 kts 323°
2026-04-26 19:57 -20.54280 -48.98248 37919 ft 414 kts 323°
2026-04-26 19:57 -20.49556 -49.01780 37920 ft 415 kts 323°
2026-04-26 19:58 -20.44837 -49.05309 37920 ft 414 kts 323°
2026-04-26 19:58 -20.40143 -49.08815 37919 ft 415 kts 323°
2026-04-26 19:59 -20.35380 -49.12369 37916 ft 415 kts 323°
2026-04-26 19:59 -20.30679 -49.15873 37917 ft 415 kts 323°
2026-04-26 20:00 -20.25941 -49.19403 37920 ft 415 kts 323°
2026-04-26 20:00 -20.21205 -49.22929 37916 ft 415 kts 323°
2026-04-26 20:01 -20.16461 -49.26458 37914 ft 416 kts 323°
2026-04-26 20:01 -20.11714 -49.29986 37914 ft 416 kts 323°
2026-04-26 20:02 -20.06963 -49.33515 37914 ft 417 kts 323°
2026-04-26 20:02 -20.03013 -49.36447 37911 ft 417 kts 323°
2026-04-26 20:03 -19.97447 -49.40575 37910 ft 417 kts 324°
2026-04-26 20:03 -19.92681 -49.44107 37911 ft 418 kts 324°
2026-04-26 20:04 -19.87914 -49.47637 37911 ft 418 kts 324°
2026-04-26 20:04 -19.83145 -49.51166 37911 ft 418 kts 324°
2026-04-26 20:05 -19.78376 -49.54692 37910 ft 418 kts 323°
2026-04-26 20:05 -19.73603 -49.58219 37911 ft 418 kts 323°
2026-04-26 20:06 -19.68823 -49.61748 37909 ft 418 kts 323°
2026-04-26 20:06 -19.64045 -49.65273 37908 ft 418 kts 323°
2026-04-26 20:07 -19.59264 -49.68798 37907 ft 418 kts 324°
2026-04-26 20:07 -19.54512 -49.72299 37909 ft 419 kts 324°
2026-04-26 20:08 -19.49685 -49.75852 37914 ft 420 kts 323°
2026-04-26 20:08 -19.44919 -49.79357 37912 ft 420 kts 323°
2026-04-26 20:09 -19.40114 -49.82890 37911 ft 420 kts 323°
2026-04-26 20:09 -19.35307 -49.86421 37910 ft 420 kts 324°
2026-04-26 20:10 -19.30497 -49.89952 37912 ft 421 kts 324°
2026-04-26 20:10 -19.25682 -49.93483 37912 ft 421 kts 324°
2026-04-26 20:11 -19.20862 -49.97015 37912 ft 421 kts 324°
2026-04-26 20:12 -19.13621 -50.02318 37906 ft 423 kts 324°
2026-04-26 20:12 -19.08780 -50.05860 37910 ft 423 kts 324°
2026-04-26 20:13 -19.03935 -50.09403 37909 ft 423 kts 324°
2026-04-26 20:13 -18.99094 -50.12940 37908 ft 423 kts 324°
2026-04-26 20:14 -18.94249 -50.16478 37906 ft 423 kts 324°
2026-04-26 20:14 -18.89401 -50.20014 37907 ft 424 kts 323°
2026-04-26 20:15 -18.84538 -50.23558 37907 ft 425 kts 323°
2026-04-26 20:15 -18.79667 -50.27107 37905 ft 425 kts 323°
2026-04-26 20:16 -18.74796 -50.30654 37908 ft 425 kts 323°
2026-04-26 20:16 -18.69926 -50.34196 37901 ft 425 kts 324°
2026-04-26 20:17 -18.65082 -50.37718 37906 ft 426 kts 324°
2026-04-26 20:17 -18.60200 -50.41264 37910 ft 426 kts 324°
2026-04-26 20:18 -18.55316 -50.44809 37910 ft 426 kts 323°
2026-04-26 20:18 -18.50432 -50.48352 37915 ft 426 kts 323°
2026-04-26 20:19 -18.45547 -50.51893 37912 ft 427 kts 324°
2026-04-26 20:19 -18.40647 -50.55439 37917 ft 427 kts 324°
2026-04-26 20:20 -18.35748 -50.58981 37915 ft 427 kts 324°
2026-04-26 20:20 -18.30846 -50.62524 37922 ft 427 kts 324°
2026-04-26 20:21 -18.25945 -50.66064 37923 ft 427 kts 324°
2026-04-26 20:21 -18.21039 -50.69605 37926 ft 428 kts 324°
2026-04-26 20:22 -18.16124 -50.73150 37930 ft 428 kts 324°
2026-04-26 20:22 -18.11210 -50.76692 37932 ft 429 kts 324°
2026-04-26 20:23 -18.06291 -50.80236 37928 ft 429 kts 324°
2026-04-26 20:23 -18.01369 -50.83779 37946 ft 429 kts 324°
2026-04-26 20:24 -17.96476 -50.87299 37930 ft 430 kts 324°
2026-04-26 20:24 -17.91543 -50.90844 37929 ft 430 kts 324°
2026-04-26 20:25 -17.86602 -50.94393 37948 ft 430 kts 324°
2026-04-26 20:25 -17.81662 -50.97938 37932 ft 430 kts 324°
2026-04-26 20:26 -17.76720 -51.01482 37940 ft 431 kts 324°
2026-04-26 20:26 -17.71773 -51.05026 37941 ft 431 kts 324°
2026-04-26 20:27 -17.66821 -51.08572 37937 ft 431 kts 324°
2026-04-26 20:27 -17.61869 -51.12116 37950 ft 431 kts 324°
2026-04-26 20:28 -17.57717 -51.15086 37947 ft 431 kts 324°
2026-04-26 20:28 -17.52798 -51.18601 37943 ft 431 kts 324°
2026-04-26 20:29 -17.47846 -51.22138 37953 ft 431 kts 324°
2026-04-26 20:29 -17.42891 -51.25676 37953 ft 431 kts 324°
2026-04-26 20:30 -17.37935 -51.29211 37941 ft 431 kts 324°
2026-04-26 20:30 -17.32982 -51.32746 37956 ft 431 kts 324°
2026-04-26 20:31 -17.28021 -51.36287 37937 ft 431 kts 324°
2026-04-26 20:31 -17.23064 -51.39822 37943 ft 432 kts 324°
2026-04-26 20:32 -17.18102 -51.43358 37951 ft 432 kts 324°
2026-04-26 20:32 -17.13141 -51.46891 37941 ft 431 kts 324°
2026-04-26 20:33 -17.08180 -51.50422 37951 ft 432 kts 324°
2026-04-26 20:33 -17.03208 -51.53959 37942 ft 432 kts 324°
2026-04-26 20:34 -16.98265 -51.57472 37934 ft 432 kts 324°
2026-04-26 20:34 -16.93295 -51.61002 37935 ft 432 kts 324°
2026-04-26 20:35 -16.88322 -51.64534 37931 ft 432 kts 324°
2026-04-26 20:35 -16.83348 -51.68062 37922 ft 432 kts 324°
2026-04-26 20:36 -16.78370 -51.71589 37933 ft 433 kts 324°
2026-04-26 20:36 -16.73382 -51.75119 37934 ft 433 kts 324°
2026-04-26 20:37 -16.68396 -51.78646 37921 ft 433 kts 324°
2026-04-26 20:37 -16.63410 -51.82170 37926 ft 433 kts 324°
2026-04-26 20:38 -16.58422 -51.85694 37930 ft 434 kts 324°
2026-04-26 20:38 -16.53385 -51.89250 37920 ft 434 kts 324°
2026-04-26 20:39 -16.48389 -51.92775 37911 ft 434 kts 324°
2026-04-26 20:39 -16.43418 -51.96281 37919 ft 434 kts 324°
2026-04-26 20:40 -16.38418 -51.99804 37920 ft 434 kts 325°
2026-04-26 20:40 -16.33407 -52.03333 37925 ft 435 kts 325°
2026-04-26 20:41 -16.28384 -52.06848 37913 ft 435 kts 325°
2026-04-26 20:41 -16.23313 -52.10287 37919 ft 435 kts 326°
2026-04-26 20:42 -16.18234 -52.13696 37906 ft 435 kts 326°
2026-04-26 20:42 -16.13151 -52.17113 37898 ft 435 kts 326°
2026-04-26 20:43 -16.08064 -52.20538 37919 ft 436 kts 326°
2026-04-26 20:43 -16.02969 -52.23970 37919 ft 437 kts 326°
2026-04-26 20:44 -15.97878 -52.27419 37931 ft 437 kts 326°
2026-04-26 20:44 -15.92787 -52.30865 37934 ft 436 kts 325°
2026-04-26 20:45 -15.87698 -52.34294 37941 ft 436 kts 326°
2026-04-26 20:45 -15.82598 -52.37722 37942 ft 437 kts 326°
2026-04-26 20:46 -15.77492 -52.41148 37948 ft 437 kts 326°
2026-04-26 20:46 -15.72378 -52.44563 37939 ft 437 kts 326°
2026-04-26 20:47 -15.67266 -52.47979 37933 ft 437 kts 326°
2026-04-26 20:47 -15.62149 -52.51396 37915 ft 437 kts 326°
2026-04-26 20:48 -15.57035 -52.54815 37909 ft 438 kts 326°
2026-04-26 20:48 -15.51920 -52.58238 37912 ft 437 kts 326°
2026-04-26 20:49 -15.46805 -52.61660 37915 ft 437 kts 326°
2026-04-26 20:49 -15.41693 -52.65079 37924 ft 437 kts 326°
2026-04-26 20:50 -15.36575 -52.68499 37916 ft 438 kts 326°
2026-04-26 20:50 -15.31457 -52.71917 37908 ft 438 kts 326°
2026-04-26 20:51 -15.26333 -52.75337 37915 ft 438 kts 326°
2026-04-26 20:51 -15.21213 -52.78752 37908 ft 437 kts 326°
2026-04-26 20:52 -15.16099 -52.82161 37902 ft 437 kts 326°
2026-04-26 20:52 -15.10993 -52.85563 37901 ft 437 kts 326°
2026-04-26 20:53 -15.05914 -52.88945 37893 ft 437 kts 326°
2026-04-26 20:53 -15.00804 -52.92347 37899 ft 437 kts 326°
2026-04-26 20:54 -14.95688 -52.95749 37901 ft 437 kts 326°
2026-04-26 20:54 -14.90573 -52.99149 37909 ft 437 kts 326°
2026-04-26 20:55 -14.85456 -53.02549 37906 ft 437 kts 326°
2026-04-26 20:55 -14.80342 -53.05944 37904 ft 437 kts 326°
2026-04-26 20:56 -14.75236 -53.09333 37906 ft 436 kts 326°
2026-04-26 20:56 -14.70100 -53.12687 37903 ft 437 kts 328°
2026-04-26 20:57 -14.64830 -53.15813 37909 ft 437 kts 330°
2026-04-26 20:57 -14.59517 -53.18868 37902 ft 438 kts 330°
2026-04-26 20:58 -14.54200 -53.21940 37902 ft 438 kts 330°
2026-04-26 20:58 -14.48894 -53.25028 37909 ft 438 kts 330°
2026-04-26 20:59 -14.43596 -53.28119 37901 ft 437 kts 330°
2026-04-26 20:59 -14.38340 -53.31184 37904 ft 437 kts 330°
2026-04-26 21:00 -14.33051 -53.34267 37900 ft 437 kts 330°
2026-04-26 21:00 -14.27756 -53.37350 37912 ft 437 kts 330°
2026-04-26 21:01 -14.22430 -53.40450 37916 ft 437 kts 330°
2026-04-26 21:01 -14.17169 -53.43510 37913 ft 437 kts 330°
2026-04-26 21:02 -14.11874 -53.46588 37902 ft 437 kts 330°
2026-04-26 21:02 -14.06575 -53.49667 37905 ft 437 kts 330°
2026-04-26 21:03 -14.01278 -53.52744 37901 ft 437 kts 330°
2026-04-26 21:03 -13.95980 -53.55819 37914 ft 437 kts 330°
2026-04-26 21:04 -13.90685 -53.58891 37905 ft 437 kts 330°
2026-04-26 21:04 -13.85387 -53.61966 37903 ft 437 kts 330°
2026-04-26 21:05 -13.80090 -53.65038 37902 ft 437 kts 330°
2026-04-26 21:05 -13.74790 -53.68111 37905 ft 437 kts 330°
2026-04-26 21:06 -13.69493 -53.71180 37900 ft 437 kts 330°
2026-04-26 21:06 -13.64191 -53.74250 37903 ft 437 kts 330°
2026-04-26 21:07 -13.58890 -53.77318 37897 ft 437 kts 330°
2026-04-26 21:07 -13.53593 -53.80382 37901 ft 437 kts 330°
2026-04-26 21:08 -13.48292 -53.83448 37903 ft 437 kts 330°
2026-04-26 21:08 -13.42988 -53.86513 37897 ft 437 kts 330°
2026-04-26 21:09 -13.37690 -53.89573 37887 ft 437 kts 330°
2026-04-26 21:09 -13.32384 -53.92636 37891 ft 437 kts 330°
2026-04-26 21:10 -13.27081 -53.95696 37883 ft 437 kts 330°
2026-04-26 21:10 -13.21777 -53.98755 37891 ft 437 kts 330°
2026-04-26 21:11 -13.16470 -54.01814 37890 ft 438 kts 330°
2026-04-26 21:11 -13.11159 -54.04874 37890 ft 438 kts 330°
2026-04-26 21:12 -13.05841 -54.07937 37904 ft 438 kts 330°
2026-04-26 21:12 -13.00519 -54.11000 37890 ft 439 kts 330°
2026-04-26 21:13 -12.95231 -54.14043 37902 ft 439 kts 330°
2026-04-26 21:13 -12.89904 -54.17103 37886 ft 439 kts 330°
2026-04-26 21:14 -12.84573 -54.20164 37899 ft 439 kts 330°
2026-04-26 21:14 -12.79241 -54.23224 37896 ft 439 kts 330°
2026-04-26 21:15 -12.73913 -54.26281 37891 ft 439 kts 330°
2026-04-26 21:15 -12.68572 -54.29344 37890 ft 441 kts 330°
2026-04-26 21:16 -12.63220 -54.32411 37893 ft 440 kts 330°
2026-04-26 21:16 -12.57878 -54.35472 37887 ft 440 kts 330°
2026-04-26 21:17 -12.53434 -54.38017 37901 ft 440 kts 330°
2026-04-26 21:17 -12.48083 -54.41080 37887 ft 441 kts 330°
2026-04-26 21:18 -12.42735 -54.44141 37899 ft 440 kts 330°
2026-04-26 21:18 -12.37387 -54.47199 37892 ft 440 kts 330°
2026-04-26 21:19 -12.32035 -54.50259 37880 ft 441 kts 330°
2026-04-26 21:19 -12.26688 -54.53315 37895 ft 440 kts 330°
2026-04-26 21:20 -12.21346 -54.56366 37883 ft 440 kts 330°
2026-04-26 21:20 -12.15995 -54.59421 37893 ft 441 kts 330°
2026-04-26 21:21 -12.10639 -54.62478 37892 ft 441 kts 330°
2026-04-26 21:21 -12.05284 -54.65532 37891 ft 441 kts 330°
2026-04-26 21:22 -11.99931 -54.68585 37902 ft 441 kts 330°
2026-04-26 21:22 -11.94575 -54.71637 37900 ft 441 kts 330°
2026-04-26 21:23 -11.86552 -54.76207 37895 ft 440 kts 330°
2026-04-26 21:23 -11.81205 -54.79250 37893 ft 440 kts 330°
2026-04-26 21:24 -11.75852 -54.82296 37890 ft 440 kts 330°
2026-04-26 21:24 -11.70498 -54.85342 37899 ft 440 kts 330°
2026-04-26 21:25 -11.65150 -54.88383 37895 ft 440 kts 330°
2026-04-26 21:25 -11.59833 -54.91403 37894 ft 441 kts 330°
2026-04-26 21:26 -11.54476 -54.94446 37894 ft 440 kts 330°
2026-04-26 21:26 -11.49130 -54.97481 37898 ft 440 kts 330°
2026-04-26 21:27 -11.43771 -55.00522 37891 ft 441 kts 330°
2026-04-26 21:27 -11.38413 -55.03562 37896 ft 441 kts 330°
2026-04-26 21:28 -11.33062 -55.06596 37890 ft 440 kts 330°
2026-04-26 21:28 -11.27711 -55.09629 37892 ft 441 kts 330°
2026-04-26 21:29 -11.22349 -55.12666 37893 ft 441 kts 330°
2026-04-26 21:29 -11.16991 -55.15700 37886 ft 440 kts 330°
2026-04-26 21:30 -11.11643 -55.18727 37900 ft 440 kts 331°
2026-04-26 21:30 -11.06276 -55.21764 37895 ft 441 kts 331°
2026-04-26 21:31 -11.00910 -55.24798 37899 ft 441 kts 331°
2026-04-26 21:31 -10.95546 -55.27828 37895 ft 441 kts 331°
2026-04-26 21:32 -10.90187 -55.30854 37895 ft 441 kts 331°
2026-04-26 21:32 -10.84826 -55.33881 37898 ft 440 kts 331°
2026-04-26 21:33 -10.79477 -55.36900 37904 ft 440 kts 331°
2026-04-26 21:33 -10.74124 -55.39919 37892 ft 440 kts 331°
2026-04-26 21:34 -10.68769 -55.42938 37892 ft 440 kts 331°
2026-04-26 21:34 -10.63420 -55.45953 37892 ft 439 kts 331°
2026-04-26 21:35 -10.58102 -55.48949 37894 ft 440 kts 331°
2026-04-26 21:35 -10.52703 -55.51990 37895 ft 441 kts 331°
2026-04-26 21:36 -10.47375 -55.54986 37892 ft 441 kts 331°
2026-04-26 21:36 -10.42010 -55.58006 37877 ft 441 kts 331°
2026-04-26 21:37 -10.36645 -55.61025 37880 ft 441 kts 331°
2026-04-26 21:37 -10.31278 -55.64044 37892 ft 441 kts 331°
2026-04-26 21:38 -10.25911 -55.67061 37890 ft 441 kts 331°
2026-04-26 21:38 -10.20534 -55.70081 37880 ft 442 kts 331°
2026-04-26 21:39 -10.15151 -55.73105 37881 ft 442 kts 331°
2026-04-26 21:39 -10.09770 -55.76126 37878 ft 442 kts 331°
2026-04-26 21:40 -10.04385 -55.79148 37890 ft 442 kts 331°
2026-04-26 21:40 -9.98995 -55.82172 37881 ft 443 kts 331°
2026-04-26 21:41 -9.93598 -55.85199 37886 ft 443 kts 331°
2026-04-26 21:41 -9.88196 -55.88228 37884 ft 444 kts 331°
2026-04-26 21:42 -9.82796 -55.91255 37887 ft 443 kts 331°
2026-04-26 21:42 -9.77400 -55.94278 37890 ft 443 kts 331°
2026-04-26 21:43 -9.72001 -55.97302 37882 ft 443 kts 331°
2026-04-26 21:43 -9.66589 -56.00311 37889 ft 443 kts 332°
2026-04-26 21:44 -9.61199 -56.03252 37883 ft 443 kts 332°
2026-04-26 21:44 -9.55760 -56.06208 37890 ft 443 kts 332°
2026-04-26 21:45 -9.50329 -56.09163 37887 ft 443 kts 332°
2026-04-26 21:45 -9.44899 -56.12121 37881 ft 443 kts 332°
2026-04-26 21:46 -9.39471 -56.15078 37883 ft 443 kts 332°
2026-04-26 21:46 -9.34048 -56.18031 37876 ft 442 kts 332°
2026-04-26 21:47 -9.28632 -56.20979 37881 ft 442 kts 332°
2026-04-26 21:47 -9.23215 -56.23926 37887 ft 442 kts 332°
2026-04-26 21:48 -9.17797 -56.26873 37887 ft 442 kts 332°
2026-04-26 21:48 -9.12382 -56.29817 37876 ft 442 kts 332°
2026-04-26 21:49 -9.06970 -56.32759 37882 ft 441 kts 332°
2026-04-26 21:49 -9.01595 -56.35679 37886 ft 441 kts 332°
2026-04-26 21:50 -8.97067 -56.38139 37877 ft 441 kts 332°
2026-04-26 21:50 -8.90747 -56.41570 37882 ft 441 kts 332°
2026-04-26 21:51 -8.85335 -56.44508 37885 ft 441 kts 332°
2026-04-26 21:51 -8.79964 -56.47422 37877 ft 441 kts 332°
2026-04-26 21:52 -8.74518 -56.50376 37887 ft 441 kts 332°
2026-04-26 21:52 -8.69144 -56.53290 37881 ft 441 kts 332°
2026-04-26 21:53 -8.63730 -56.56225 37885 ft 441 kts 332°
2026-04-26 21:53 -8.58315 -56.59159 37890 ft 441 kts 332°
2026-04-26 21:54 -8.52907 -56.62089 37887 ft 441 kts 332°
2026-04-26 21:54 -8.47509 -56.65012 37894 ft 440 kts 332°
2026-04-26 21:55 -8.42109 -56.67935 37899 ft 441 kts 332°
2026-04-26 21:55 -8.36706 -56.70860 37892 ft 440 kts 332°
2026-04-26 21:56 -8.31311 -56.73778 37899 ft 440 kts 332°
2026-04-26 21:56 -8.25908 -56.76701 37894 ft 441 kts 332°
2026-04-26 21:57 -8.20506 -56.79621 37897 ft 440 kts 332°
2026-04-26 21:57 -8.15111 -56.82538 37899 ft 440 kts 332°
2026-04-26 21:58 -8.09706 -56.85458 37894 ft 441 kts 332°
2026-04-26 21:58 -8.04626 -56.88894 37898 ft 440 kts 323°
2026-04-26 21:59 -7.99773 -56.92659 37891 ft 440 kts 323°
2026-04-26 21:59 -7.94931 -56.96452 37895 ft 441 kts 323°
2026-04-26 22:00 -7.90086 -57.00252 37895 ft 441 kts 323°
2026-04-26 22:00 -7.85240 -57.04053 37896 ft 441 kts 323°
2026-04-26 22:01 -7.80395 -57.07854 37891 ft 441 kts 323°
2026-04-26 22:01 -7.75543 -57.11658 37891 ft 442 kts 323°
2026-04-26 22:02 -7.71515 -57.14815 37885 ft 441 kts 323°
2026-04-26 22:02 -7.65882 -57.19229 37886 ft 441 kts 323°
2026-04-26 22:03 -7.61029 -57.23031 37887 ft 443 kts 323°
2026-04-26 22:03 -7.56153 -57.26850 37882 ft 444 kts 323°
2026-04-26 22:04 -7.51275 -57.30669 37892 ft 444 kts 323°
2026-04-26 22:04 -7.46397 -57.34487 37893 ft 444 kts 323°
2026-04-26 22:05 -7.41522 -57.38302 37895 ft 444 kts 323°
2026-04-26 22:05 -7.36646 -57.42117 37886 ft 444 kts 323°
2026-04-26 22:06 -7.31759 -57.45938 37892 ft 445 kts 323°
2026-04-26 22:06 -7.26861 -57.49767 37892 ft 446 kts 323°
2026-04-26 22:07 -7.21961 -57.53597 37893 ft 446 kts 323°
2026-04-26 22:07 -7.17890 -57.56778 37888 ft 446 kts 323°
2026-04-26 22:08 -7.12993 -57.60604 37892 ft 446 kts 323°
2026-04-26 22:08 -7.08092 -57.64432 37885 ft 446 kts 323°
2026-04-26 22:09 -7.03190 -57.68259 37889 ft 446 kts 323°
2026-04-26 22:09 -6.98280 -57.72091 37887 ft 447 kts 323°
2026-04-26 22:10 -6.93359 -57.75931 37896 ft 447 kts 323°
2026-04-26 22:10 -6.88441 -57.79767 37891 ft 447 kts 323°
2026-04-26 22:11 -6.83527 -57.83600 37893 ft 447 kts 323°
2026-04-26 22:11 -6.78607 -57.87436 37893 ft 447 kts 323°
2026-04-26 22:12 -6.73687 -57.91271 37897 ft 447 kts 323°
2026-04-26 22:12 -6.68771 -57.95102 37887 ft 447 kts 323°
2026-04-26 22:13 -6.63859 -57.98929 37894 ft 446 kts 323°
2026-04-26 22:13 -6.58955 -58.02749 37884 ft 446 kts 323°
2026-04-26 22:14 -6.54045 -58.06572 37887 ft 446 kts 323°
2026-04-26 22:14 -6.49137 -58.10392 37888 ft 446 kts 323°
2026-04-26 22:15 -6.44228 -58.14213 37889 ft 446 kts 323°
2026-04-26 22:15 -6.39321 -58.18032 37889 ft 446 kts 323°
2026-04-26 22:16 -6.34417 -58.21846 37893 ft 446 kts 323°
2026-04-26 22:16 -6.29539 -58.25650 37895 ft 447 kts 323°
2026-04-26 22:17 -6.24619 -58.29478 37892 ft 447 kts 323°
2026-04-26 22:17 -6.19696 -58.33301 37896 ft 447 kts 323°
2026-04-26 22:18 -6.14773 -58.37121 37901 ft 447 kts 323°
2026-04-26 22:18 -6.09846 -58.40947 37893 ft 448 kts 323°
2026-04-26 22:19 -6.04909 -58.44781 37893 ft 448 kts 323°
2026-04-26 22:19 -5.99977 -58.48614 37900 ft 448 kts 323°
2026-04-26 22:20 -5.95037 -58.52455 37898 ft 449 kts 323°
2026-04-26 22:20 -5.90090 -58.56296 37898 ft 449 kts 323°
2026-04-26 22:21 -5.85144 -58.60136 37898 ft 449 kts 323°
2026-04-26 22:21 -5.80193 -58.63978 37898 ft 451 kts 323°
2026-04-26 22:22 -5.75229 -58.67829 37891 ft 451 kts 323°
2026-04-26 22:22 -5.70262 -58.71681 37891 ft 451 kts 323°
2026-04-26 22:23 -5.65294 -58.75532 37894 ft 451 kts 323°
2026-04-26 22:23 -5.60329 -58.79380 37893 ft 451 kts 323°
2026-04-26 22:24 -5.55360 -58.83226 37890 ft 451 kts 323°
2026-04-26 22:24 -5.50392 -58.87071 37888 ft 450 kts 324°
2026-04-26 22:25 -5.45442 -58.90904 37886 ft 449 kts 324°
2026-04-26 22:25 -5.40493 -58.94736 37891 ft 449 kts 324°
2026-04-26 22:26 -5.35580 -58.98540 37899 ft 449 kts 324°
2026-04-26 22:26 -5.30632 -59.02371 37894 ft 449 kts 324°
2026-04-26 22:27 -5.25680 -59.06203 37892 ft 450 kts 324°
2026-04-26 22:27 -5.20715 -59.10045 37889 ft 450 kts 324°
2026-04-26 22:28 -5.15764 -59.13876 37895 ft 449 kts 324°
2026-04-26 22:28 -5.10816 -59.17703 37894 ft 449 kts 324°
2026-04-26 22:29 -5.05870 -59.21528 37899 ft 449 kts 324°
2026-04-26 22:29 -5.00928 -59.25349 37893 ft 449 kts 324°
2026-04-26 22:30 -4.95979 -59.29175 37903 ft 449 kts 324°
2026-04-26 22:30 -4.91035 -59.32996 37893 ft 449 kts 324°
2026-04-26 22:31 -4.86077 -59.36827 37894 ft 451 kts 324°
2026-04-26 22:31 -4.81097 -59.40675 37825 ft 453 kts 324°
2026-04-26 22:32 -4.78605 -59.42600 37569 ft 452 kts 324°
2026-04-26 22:32 -4.76110 -59.44527 37314 ft 453 kts 324°
2026-04-26 22:32 -4.73613 -59.46455 37058 ft 454 kts 324°
2026-04-26 22:32 -4.71108 -59.48390 36813 ft 455 kts 324°
2026-04-26 22:33 -4.68602 -59.50325 36554 ft 456 kts 324°
2026-04-26 22:33 -4.63568 -59.54212 36065 ft 458 kts 324°
2026-04-26 22:33 -4.61045 -59.56160 35824 ft 458 kts 324°
2026-04-26 22:34 -4.58522 -59.58108 35323 ft 459 kts 324°
2026-04-26 22:34 -4.55975 -59.60073 34582 ft 464 kts 324°
2026-04-26 22:34 -4.53404 -59.62056 33803 ft 470 kts 324°
2026-04-26 22:34 -4.50798 -59.64067 32951 ft 474 kts 324°
2026-04-26 22:35 -4.48212 -59.66064 32418 ft 464 kts 324°
2026-04-26 22:35 -4.45681 -59.68019 31869 ft 456 kts 324°
2026-04-26 22:35 -4.43170 -59.69956 31294 ft 455 kts 324°
2026-04-26 22:35 -4.40661 -59.71892 30723 ft 455 kts 324°
2026-04-26 22:36 -4.38151 -59.73828 30145 ft 453 kts 324°
2026-04-26 22:36 -4.35674 -59.75739 29502 ft 446 kts 324°
2026-04-26 22:36 -4.33239 -59.77617 28901 ft 438 kts 324°
2026-04-26 22:36 -4.30837 -59.79470 28339 ft 435 kts 324°
2026-04-26 22:37 -4.28437 -59.81320 27762 ft 434 kts 324°
2026-04-26 22:37 -4.26060 -59.83153 27178 ft 428 kts 325°
2026-04-26 22:37 -4.23724 -59.84955 26628 ft 421 kts 324°
2026-04-26 22:37 -4.21406 -59.86742 26062 ft 420 kts 324°
2026-04-26 22:38 -4.19088 -59.88528 25489 ft 421 kts 324°
2026-04-26 22:38 -4.16763 -59.90319 24913 ft 422 kts 324°
2026-04-26 22:38 -4.14442 -59.92108 24339 ft 419 kts 324°
2026-04-26 22:38 -4.12104 -59.93848 23766 ft 418 kts 329°
2026-04-26 22:39 -4.09527 -59.95012 23151 ft 408 kts 348°
2026-04-26 22:39 -4.06743 -59.95282 22499 ft 401 kts
2026-04-26 22:39 -4.03975 -59.95078 21997 ft 397 kts
2026-04-26 22:39 -4.01240 -59.94807 21488 ft 394 kts
2026-04-26 22:40 -3.98519 -59.94539 20982 ft 391 kts
2026-04-26 22:40 -3.95824 -59.94285 20489 ft 388 kts
2026-04-26 22:40 -3.93151 -59.94040 20026 ft 384 kts
2026-04-26 22:40 -3.90493 -59.93802 19530 ft 382 kts
2026-04-26 22:41 -3.87859 -59.93568 19052 ft 379 kts
2026-04-26 22:41 -3.85238 -59.93337 18576 ft 377 kts
2026-04-26 22:41 -3.82638 -59.93109 18106 ft 374 kts
2026-04-26 22:41 -3.80057 -59.92883 17581 ft 371 kts
2026-04-26 22:42 -3.77495 -59.92659 17051 ft 368 kts
2026-04-26 22:42 -3.74953 -59.92437 16545 ft 365 kts
2026-04-26 22:42 -3.72429 -59.92217 16043 ft 363 kts
2026-04-26 22:42 -3.69926 -59.91999 15555 ft 360 kts
2026-04-26 22:43 -3.67437 -59.91781 15038 ft 358 kts
2026-04-26 22:43 -3.64962 -59.91565 14565 ft 356 kts
2026-04-26 22:43 -3.62507 -59.91351 14091 ft 353 kts
2026-04-26 22:43 -3.60066 -59.91138 13614 ft 351 kts
2026-04-26 22:44 -3.57646 -59.90927 13112 ft 348 kts
2026-04-26 22:44 -3.55246 -59.90718 12614 ft 344 kts
2026-04-26 22:44 -3.52867 -59.90510 12113 ft 342 kts
2026-04-26 22:44 -3.50508 -59.90305 11628 ft 339 kts
2026-04-26 22:45 -3.48165 -59.90100 11052 ft 337 kts
2026-04-26 22:45 -3.45867 -59.89900 10687 ft 325 kts
2026-04-26 22:45 -3.43654 -59.89708 10512 ft 313 kts
2026-04-26 22:45 -3.41529 -59.89524 10359 ft 301 kts
2026-04-26 22:46 -3.39465 -59.89344 10047 ft 296 kts
2026-04-26 22:46 -3.37411 -59.89164 9621 ft 296 kts
2026-04-26 22:46 -3.35371 -59.88986 9199 ft 293 kts
2026-04-26 22:46 -3.33346 -59.88809 8781 ft 291 kts
2026-04-26 22:47 -3.31347 -59.88634 8469 ft 285 kts
2026-04-26 22:47 -3.29354 -59.88460 7689 ft 292 kts
2026-04-26 22:47 -3.27295 -59.88280 6704 ft 302 kts
2026-04-26 22:47 -3.25194 -59.88097 6091 ft 299 kts
2026-04-26 22:48 -3.23186 -59.87923 5836 ft 281 kts
2026-04-26 22:48 -3.21292 -59.87759 5598 ft 265 kts
2026-04-26 22:48 -3.19501 -59.87603 5363 ft 252 kts
2026-04-26 22:48 -3.17795 -59.87455 5128 ft 241 kts
2026-04-26 22:49 -3.16171 -59.87314 4969 ft 227 kts
2026-04-26 22:49 -3.14676 -59.87191 4888 ft 206 kts
2026-04-26 22:49 -3.13315 -59.87145 4840 ft 185 kts
2026-04-26 22:49 -3.12080 -59.87129 4659 ft 171 kts
2026-04-26 22:50 -3.10928 -59.87122 4467 ft 159 kts
2026-04-26 22:50 -3.09828 -59.87116 4050 ft 163 kts
2026-04-26 22:50 -3.08664 -59.87110 3616 ft 167 kts
2026-04-26 22:50 -3.07550 -59.87121 3418 ft 154 kts 358°
2026-04-26 22:51 -3.06516 -59.87290 3169 ft 149 kts 345°
2026-04-26 22:51 -3.05580 -59.87710 2856 ft 147 kts 329°
2026-04-26 22:51 -3.04804 -59.88367 2497 ft 147 kts 313°
2026-04-26 22:51 -3.04239 -59.89221 2160 ft 150 kts 297°
2026-04-26 22:52 -3.03934 -59.90217 2064 ft 152 kts 281°
2026-04-26 22:52 -3.03864 -59.91274 2058 ft 153 kts 272°
2026-04-26 22:52 -3.03863 -59.92335 2060 ft 153 kts 272°
2026-04-26 22:52 -3.03869 -59.93396 2058 ft 152 kts 272°
2026-04-26 22:53 -3.03873 -59.94454 2060 ft 152 kts 272°
2026-04-26 22:53 -3.03874 -59.95499 2001 ft 152 kts 273°
2026-04-26 22:53 -3.03874 -59.96555 1804 ft 152 kts 272°
2026-04-26 22:53 -3.03873 -59.97609 1586 ft 152 kts 272°
2026-04-26 22:54 -3.03871 -59.98662 1362 ft 150 kts 270°
2026-04-26 22:54 -3.03871 -59.99708 1157 ft 151 kts 272°
2026-04-26 22:54 -3.03868 -60.00755 994 ft 150 kts 271°
2026-04-26 22:54 -3.03866 -60.01795 802 ft 149 kts 271°
2026-04-26 22:55 -3.03866 -60.02825 592 ft 147 kts 272°
2026-04-26 22:55 -3.03860 -60.03846 378 ft 146 kts 271°
2026-04-26 22:55 -3.03864 -60.04829 303 ft 133 kts 272°
2026-04-26 22:55 -3.03855 -60.05374 298 ft 95 kts 271°
2026-04-26 22:56 -3.03859 -60.05816 297 ft 53 kts 270°
2026-04-26 22:56 -3.03860 -60.06104 297 ft 27 kts 266°
2026-04-26 22:56 -3.03796 -60.06172 297 ft 12 kts 356°
2026-04-26 22:56 -3.03748 -60.06166 296 ft 0 kts 18°
2026-04-26 22:58 -3.03743 -60.06164 296 ft 4 kts 18°
2026-04-26 22:58 -3.03699 -60.06116 296 ft 13 kts 69°
2026-04-26 22:58 -3.03690 -60.06030 299 ft 12 kts 89°
2026-04-26 22:58 -3.03689 -60.05946 300 ft 12 kts 89°
2026-04-26 22:59 -3.03688 -60.05859 300 ft 15 kts 90°
2026-04-26 22:59 -3.03688 -60.05746 300 ft 17 kts 90°
2026-04-26 22:59 -3.03687 -60.05631 299 ft 16 kts 90°
2026-04-26 22:59 -3.03687 -60.05518 300 ft 16 kts 89°
2026-04-26 23:00 -3.03677 -60.05395 303 ft 19 kts 79°
2026-04-26 23:00 -3.03648 -60.05263 300 ft 19 kts 77°
2026-04-26 23:00 -3.03614 -60.05136 301 ft 19 kts 75°
2026-04-26 23:00 -3.03579 -60.05010 301 ft 19 kts 71°
2026-04-26 23:01 -3.03507 -60.04906 303 ft 18 kts 43°
2026-04-26 23:01 -3.03413 -60.04827 302 ft 17 kts 47°
2026-04-26 23:01 -3.03356 -60.04743 303 ft 8 kts 81°
2026-04-26 23:01 -3.03353 -60.04682 302 ft 12 kts 90°
2026-04-26 23:02 -3.03354 -60.04582 302 ft 15 kts 90°
2026-04-26 23:02 -3.03347 -60.04510 285 ft 5 kts 81°
2026-04-26 23:02 -3.03337 -60.04492 307 ft 2 kts 56°
2026-04-26 23:02 -3.03309 -60.04461 302 ft 13 kts 45°
2026-04-26 23:03 -3.03273 -60.04391 305 ft 11 kts 72°
2026-04-26 23:03 -3.03253 -60.04343 303 ft 5 kts 45°
2026-04-26 23:03 -3.03222 -60.04336 303 ft 4 kts 356°
2026-04-26 23:03 -3.03214 -60.04337 304 ft 0 kts 355°